[[{"header":{"parameterUnit":"m.s-1","parameterCategory":1,"la1":30.2991,"la2":30.254,"lo1":-89.0895,"lo2":-89.0444,"dy":0.0017,"dx":0.0017,"nx":28,"ny":28,"refTime":"2024-03-30T03:00:00:Z","depth":0,"parameterNumber":2,"parameterNumberName":"U-component_of_WINDS"},"data":[0,0,0,0,0,0,0,0,0,0,0,0,0,0,0,0,0,0,0,0,0,0,0,0,0,0,0,0,0,0,0,0,0,0,0,0,0,0,0,0,0,0,0,0,0,0,0,0,0,0,0,0,0,0,0,0,0,0,-2.3463,-2.3463,0,-2.3447,-2.3447,-2.3447,-2.3402,-2.3401,-2.34,-2.3399,-2.3382,-2.3383,-2.3383,0,0,0,0,0,0,0,0,0,0,0,0,0,-2.3455,-2.3455,-2.3463,-2.3463,-2.3462,-2.3447,-2.3447,-2.3447,-2.3402,-2.3401,-2.3399,-2.3398,-2.3382,-2.3382,-2.3383,0,0,0,0,0,0,0,0,0,0,0,0,0,-2.3451,-2.3455,-2.3463,-2.3438,-2.3436,-2.3447,-2.3447,-2.3447,-2.3402,-2.3401,-2.3399,-2.3398,-2.3382,-2.3382,-2.3383,-2.3417,0,0,-2.3385,-2.3386,0,0,0,0,0,0,0,0,-2.3451,-2.3451,-2.3442,-2.344,-2.3437,-2.3425,-2.3438,-2.3437,-2.3402,-2.3415,-2.3399,-2.3397,-2.3397,-2.3397,-2.3397,-2.3416,-2.3416,-2.3385,-2.3386,-2.3386,-2.3386,0,0,0,0,0,0,0,-2.3451,-2.3451,-2.3457,-2.3442,-2.3439,-2.3428,-2.3426,-2.3438,-2.3415,-2.3414,-2.341,-2.3409,-2.3396,-2.3397,-2.3396,-2.3415,-2.3385,-2.3386,-2.3386,-2.3387,-2.3463,-2.3465,0,0,0,0,0,0,-2.3455,-2.3452,-2.3457,-2.3456,-2.3441,-2.343,-2.3427,-2.343,-2.3414,-2.341,-2.341,-2.3407,-2.3396,-2.3396,-2.3396,-2.3435,-2.3386,-2.3387,-2.3387,-2.3462,-2.3464,-2.3465,0,0,0,0,0,0,-2.3455,-2.3456,-2.3458,-2.3453,-2.3453,-2.3431,-2.3435,-2.3431,-2.3431,-2.3412,-2.3408,-2.3415,-2.3395,-2.3395,-2.3412,-2.3433,-2.3387,-2.3388,-2.346,-2.3462,-2.3465,-2.3513,0,0,0,0,0,0,-2.3455,-2.3456,-2.3468,-2.3454,-2.3453,-2.3474,-2.3437,-2.3432,-2.3433,-2.3428,-2.3415,-2.3412,-2.3394,-2.3412,-2.3413,-2.3433,-2.3388,-2.3458,-2.3461,-2.3464,-2.3509,-2.3517,-2.3523,0,0,0,0,0,-2.3455,-2.3482,-2.3469,-2.347,-2.3468,-2.3476,-2.3475,-2.3454,-2.3435,-2.3447,-2.3435,-2.3412,-2.3432,-2.3414,-2.3415,-2.3436,-2.3456,-2.346,-2.3464,-2.3506,-2.3515,-2.3523,0,0,0,0,0,0,-2.3499,-2.348,-2.3465,-2.3488,-2.3484,-2.3468,-2.3483,-2.3464,-2.3465,-2.3461,-2.3435,-2.3432,-2.3454,-2.3447,-2.3428,-2.3469,-2.344,-2.3444,-2.3472,-2.3481,-2.3487,-2.3488,-2.3389,0,0,0,0,0,-2.3511,-2.3519,-2.3502,-2.3525,-2.3523,-2.3504,-2.3506,-2.3491,-2.3485,-2.3483,-2.3472,-2.3468,-2.3473,-2.3477,-2.348,-2.3509,-2.3506,-2.3524,-2.3531,-2.3537,-2.354,-2.3556,-2.3564,-2.3477,-2.3477,-2.3477,0,0,-2.3537,-2.3528,-2.3534,-2.3533,-2.3528,-2.3537,-2.3502,-2.3513,-2.352,-2.3485,-2.3501,-2.3493,-2.3487,-2.351,-2.352,-2.3505,-2.3564,-2.3541,-2.3546,-2.3546,-2.356,-2.3568,-2.3576,-2.348,-2.3479,-2.3479,0,0,-2.3588,-2.3582,-2.36,-2.3596,-2.3589,-2.3576,-2.3581,-2.3569,-2.3562,-2.3578,-2.3553,-2.3561,-2.357,-2.3567,-2.3566,-2.362,-2.3599,-2.3622,-2.3657,-2.3672,-2.3679,-2.3685,-2.3703,-2.3711,-2.3626,-2.3626,-2.3626,0,-2.362,-2.3633,-2.3611,-2.3624,-2.3625,-2.3595,-2.3614,-2.3611,-2.3606,-2.3607,-2.3591,-2.3604,-2.3597,-2.362,-2.3633,-2.3634,-2.3639,-2.3622,-2.368,-2.3685,-2.369,-2.3708,-2.3715,-2.3628,-2.3628,-2.3628,-2.3628,0,-2.3673,-2.3682,-2.3698,-2.3694,-2.3697,-2.3713,-2.3695,-2.37,-2.3686,-2.3675,-2.3693,-2.3685,-2.3687,-2.3691,-2.3677,-2.3713,-2.3704,-2.3684,-2.3654,-2.3702,-2.3718,-2.3724,-2.3632,-2.3631,-2.3631,-2.363,0,0,-2.3748,-2.3734,-2.374,-2.3739,-2.3731,-2.3738,-2.3753,-2.3756,-2.3761,-2.376,-2.3772,-2.3782,-2.3764,-2.3764,-2.3749,-2.3763,-2.3806,-2.3742,-2.3741,-2.3753,-2.3846,-2.386,-2.3868,-2.3794,-2.3795,-2.3796,-2.3846,0,-2.3796,-2.382,-2.3803,-2.383,-2.3839,-2.3813,-2.3826,-2.3823,-2.3815,-2.3821,-2.3812,-2.3819,-2.3796,-2.3796,-2.3808,-2.3798,-2.3824,-2.3795,-2.3804,-2.3805,-2.3805,-2.3876,-2.389,-2.3938,-2.3852,-2.3853,-2.3854,0,-2.3853,-2.3855,-2.3884,-2.3876,-2.3879,-2.3891,-2.3893,-2.39,-2.3896,-2.3889,-2.3891,-2.3873,-2.3888,-2.3861,-2.3882,-2.3862,-2.3866,-2.3862,-2.3863,-2.3862,-2.3831,-2.3876,-2.3953,-2.396,-2.3864,-2.3863,-2.3863,0,-2.3905,-2.3915,-2.3933,-2.3933,-2.3924,-2.3933,-2.393,-2.3925,-2.3928,-2.3931,-2.3933,-2.3937,-2.3938,-2.3942,-2.3927,-2.3908,-2.395,-2.3921,-2.3944,-2.3945,-2.3952,-2.3952,-2.403,-2.3957,-2.3957,-2.3957,-2.3957,0,-2.3959,-2.3977,-2.3956,-2.3967,-2.3988,-2.3969,-2.399,-2.3984,-2.3981,-2.3991,-2.3969,-2.3979,-2.3959,-2.3967,-2.3955,-2.3975,-2.3976,-2.3971,-2.3967,-2.3972,-2.3972,-2.3972,-2.3968,-2.3959,-2.3958,-2.3958,-2.3958,0,-2.4018,-2.4005,-2.4024,-2.4014,-2.4012,-2.4028,-2.402,-2.403,-2.4022,-2.4035,-2.4037,-2.4023,-2.4032,-2.4018,-2.4025,-2.4017,-2.4044,-2.4036,-2.4045,-2.4042,-2.4066,-2.4063,-2.4145,-2.4155,-2.4077,-2.4078,-2.4079,0,-2.4053,-2.4066,-2.4059,-2.4065,-2.4063,-2.4072,-2.4075,-2.4058,-2.4063,-2.4062,-2.4073,-2.408,-2.4085,-2.4101,-2.4091,-2.4097,-2.4088,-2.4117,-2.4089,-2.4094,-2.4088,-2.4087,-2.4088,-2.4122,-2.4123,-2.4124,-2.4124,0,-2.4115,-2.4109,-2.4115,-2.4119,-2.4125,-2.4127,-2.4128,-2.4134,-2.4116,-2.4123,-2.4132,-2.4136,-2.4145,-2.4152,-2.4156,-2.4153,-2.4136,-2.4134,-2.4139,-2.4143,-2.4148,-2.4145,-2.4059,-2.4131,-2.4131,-2.413,-2.413,-2.4129,-2.4163,-2.4174,-2.4171,-2.4179,-2.4179,-2.4181,-2.4191,-2.4184,-2.4191,-2.4197,-2.4187,-2.4199,-2.4197,-2.4201,-2.42,-2.421,-2.4197,-2.4205,-2.4207,-2.4209,-2.4212,-2.4148,-2.421,-2.421,-2.421,-2.421,-2.421,0,-2.4224,-2.4221,-2.4229,-2.4232,-2.4239,-2.4223,-2.4224,-2.4231,-2.4242,-2.4242,-2.4248,-2.4259,-2.4267,-2.426,-2.4267,-2.4276,-2.4268,-2.4278,-2.4276,-2.4276,-2.4223,-2.4218,-2.4284,-2.4284,-2.4284,-2.4284,-2.4284,-2.4284,-2.4256,-2.4275,-2.4269,-2.4287,-2.4285,-2.4297,-2.4299,-2.4301,-2.4301,-2.4315,-2.4322,-2.4317,-2.4314,-2.4321,-2.4328,-2.4326,-2.4329,-2.4342,-2.4337,-2.4287,-2.428,-2.4273,-2.4267,-2.4343,-2.4343,-2.4389,-2.4389,-2.4389]},{"header":{"parameterUnit":"m.s-1","parameterCategory":1,"la1":30.2991,"la2":30.254,"lo1":-89.0895,"lo2":-89.0444,"dy":0.0017,"dx":0.0017,"nx":28,"ny":28,"refTime":"2024-03-30T03:00:00:Z","depth":0,"parameterNumber":3,"parameterNumberName":"V-component_of_WINDS"},"data":[0,0,0,0,0,0,0,0,0,0,0,0,0,0,0,0,0,0,0,0,0,0,0,0,0,0,0,0,0,0,0,0,0,0,0,0,0,0,0,0,0,0,0,0,0,0,0,0,0,0,0,0,0,0,0,0,0,0,3.8224,3.8224,0,3.8255,3.8256,3.8256,3.8298,3.8298,3.8299,3.83,3.8328,3.8328,3.8328,0,0,0,0,0,0,0,0,0,0,0,0,0,3.8198,3.8198,3.8224,3.8224,3.8225,3.8255,3.8256,3.8256,3.8298,3.8298,3.8299,3.83,3.8328,3.8328,3.8328,0,0,0,0,0,0,0,0,0,0,0,0,0,3.8217,3.8198,3.8224,3.8249,3.8252,3.8255,3.8256,3.8256,3.8297,3.8298,3.83,3.8301,3.8328,3.8328,3.8328,3.8307,0,0,3.8328,3.8328,0,0,0,0,0,0,0,0,3.8216,3.8218,3.8245,3.8248,3.8251,3.8274,3.8257,3.8273,3.8297,3.828,3.83,3.8301,3.8309,3.831,3.8314,3.8309,3.831,3.8328,3.8328,3.8328,3.8328,0,0,0,0,0,0,0,3.8215,3.8217,3.8236,3.8246,3.8249,3.8258,3.8262,3.826,3.8288,3.8282,3.8285,3.8288,3.831,3.8314,3.8315,3.831,3.8328,3.8328,3.8328,3.8329,3.8292,3.8291,0,0,0,0,0,0,3.821,3.8216,3.8235,3.8237,3.8236,3.8258,3.8262,3.8265,3.8288,3.8293,3.8287,3.829,3.8313,3.8315,3.8316,3.8295,3.8328,3.8329,3.8329,3.8293,3.8291,3.829,0,0,0,0,0,0,3.8209,3.8211,3.8234,3.8227,3.8231,3.8257,3.826,3.8265,3.8269,3.8292,3.8297,3.8286,3.8314,3.8316,3.831,3.8296,3.8329,3.8329,3.8294,3.8292,3.8291,3.8251,0,0,0,0,0,0,3.8208,3.8211,3.8204,3.8227,3.8231,3.8228,3.8259,3.8265,3.8269,3.8273,3.8292,3.8296,3.8315,3.8309,3.831,3.8297,3.8329,3.8295,3.8293,3.8291,3.8254,3.8248,3.8244,0,0,0,0,0,3.8207,3.819,3.8203,3.8205,3.8223,3.8227,3.823,3.8252,3.8268,3.8261,3.8276,3.8296,3.8298,3.8309,3.8309,3.8296,3.8296,3.8294,3.8291,3.8256,3.8249,3.8244,0,0,0,0,0,0,3.8163,3.8194,3.8208,3.8199,3.821,3.8234,3.8226,3.8244,3.8251,3.8254,3.8281,3.8285,3.8276,3.8285,3.8297,3.8278,3.83,3.8297,3.8272,3.8266,3.8261,3.8259,3.8329,0,0,0,0,0,3.8153,3.8154,3.8181,3.8169,3.8175,3.8199,3.8202,3.8219,3.8231,3.8236,3.8251,3.8261,3.8265,3.8266,3.827,3.8255,3.826,3.8247,3.8242,3.8237,3.8235,3.8229,3.8223,3.8282,3.8282,3.8282,0,0,3.813,3.8147,3.8146,3.8161,3.8172,3.8173,3.8203,3.8202,3.8203,3.8235,3.8232,3.8243,3.8256,3.8246,3.8243,3.8254,3.822,3.8234,3.8231,3.8231,3.8226,3.822,3.8215,3.8281,3.8281,3.8281,0,0,3.809,3.8103,3.8095,3.8106,3.8123,3.814,3.8138,3.816,3.817,3.8166,3.8191,3.8192,3.8197,3.8206,3.8211,3.8176,3.8194,3.8176,3.815,3.8144,3.8139,3.8135,3.8123,3.8118,3.8174,3.8174,3.8174,0,3.8059,3.8063,3.8089,3.8087,3.8093,3.8125,3.8117,3.8126,3.8143,3.8146,3.8159,3.8166,3.8177,3.8171,3.8162,3.8165,3.8164,3.8174,3.8138,3.8134,3.8131,3.812,3.8115,3.8171,3.8172,3.8172,3.8172,0,3.8025,3.8027,3.8019,3.8036,3.8041,3.8036,3.8061,3.8063,3.808,3.8095,3.8092,3.8106,3.8115,3.8114,3.8129,3.811,3.8117,3.8133,3.8155,3.8122,3.8113,3.8108,3.8168,3.8169,3.817,3.817,0,0,3.7957,3.799,3.7987,3.7996,3.8018,3.8019,3.8016,3.8026,3.8027,3.8037,3.8036,3.804,3.8056,3.8062,3.8078,3.8073,3.8045,3.809,3.8091,3.8082,3.8025,3.8013,3.8007,3.8057,3.8057,3.8056,3.8024,0,3.7921,3.7919,3.7943,3.7934,3.7937,3.7967,3.7964,3.7977,3.7991,3.7995,3.801,3.8013,3.8034,3.8038,3.8034,3.8049,3.8034,3.8052,3.8055,3.8055,3.8052,3.8002,3.7989,3.7958,3.802,3.802,3.8019,0,3.7879,3.789,3.7881,3.7905,3.7907,3.7904,3.7916,3.7919,3.7934,3.7945,3.7952,3.7972,3.797,3.7991,3.7989,3.8001,3.8003,3.8011,3.8011,3.8012,3.8035,3.8003,3.7949,3.7944,3.8013,3.8014,3.8014,0,3.7831,3.7843,3.784,3.7847,3.7874,3.7871,3.7882,3.7899,3.7903,3.7913,3.7916,3.7925,3.793,3.7936,3.7957,3.7971,3.7953,3.7975,3.7961,3.7961,3.7956,3.7956,3.7902,3.7957,3.7957,3.7957,3.7957,0,3.7789,3.7783,3.782,3.7818,3.7812,3.7839,3.7832,3.7846,3.7861,3.7862,3.7888,3.7888,3.7916,3.7919,3.7936,3.7932,3.7933,3.7942,3.7947,3.794,3.7939,3.7942,3.7945,3.7956,3.7956,3.7957,3.7957,0,3.7735,3.7759,3.7758,3.7785,3.7791,3.7786,3.7808,3.7807,3.7824,3.7824,3.7826,3.7852,3.7857,3.7879,3.7889,3.79,3.7891,3.7899,3.7886,3.7889,3.7874,3.7876,3.7821,3.7816,3.7873,3.7873,3.7872,0,3.7707,3.7703,3.773,3.7733,3.7744,3.7748,3.7754,3.7781,3.7785,3.7803,3.78,3.7808,3.7815,3.7822,3.7841,3.7849,3.7858,3.7839,3.7859,3.7853,3.7859,3.7859,3.7859,3.7834,3.7833,3.7833,3.7832,0,3.7654,3.7667,3.7675,3.7687,3.7693,3.7704,3.7716,3.7717,3.7747,3.775,3.7757,3.7763,3.7774,3.7782,3.7793,3.7803,3.7822,3.7825,3.7823,3.7816,3.7809,3.7813,3.7875,3.7827,3.7827,3.7827,3.7828,3.7828,3.7613,3.7612,3.7631,3.7639,3.7651,3.7662,3.7663,3.768,3.7687,3.7699,3.7714,3.7719,3.7735,3.7753,3.7762,3.7765,3.7776,3.7772,3.7771,3.777,3.7767,3.7808,3.7767,3.7767,3.7768,3.7768,3.7768,0,3.7563,3.7577,3.7584,3.7601,3.7607,3.7627,3.7641,3.7645,3.7649,3.7663,3.7671,3.7678,3.7686,3.7706,3.7715,3.7714,3.7723,3.7716,3.7716,3.7719,3.7756,3.7758,3.7708,3.7708,3.7709,3.7709,3.7709,3.7709,3.7537,3.7537,3.7552,3.7557,3.7571,3.7577,3.7584,3.7594,3.7606,3.7614,3.7621,3.7634,3.7651,3.7662,3.7669,3.7675,3.7677,3.7667,3.7675,3.771,3.7716,3.7721,3.7723,3.7667,3.7667,3.7638,3.7638,3.7637]}]]